リニア彗星

197P/LINEAR (2013)

English version
Home page
Updated on June 11, 2016

---------------------------------------------------------------------

・ プロフィール

・ 写真集

・ 軌道要素

Epoch 2013 Mar. 9.0 TT = JDT 2456360.5
T 2013 Mar. 24.85318 TT                                 Kobayashi
q   1.0614595            (2000.0)            P               Q
n   0.20304089     Peri.  188.74084     -0.27022237     +0.87800162
a   2.8669077      Node    66.38995     -0.85523774     -0.03042095
e   0.6297546      Incl.   25.54241     -0.44220842     -0.47768998
P   4.85
From 304 observations 2003 May 23-2013 Sept. 25, mean residual 0".7.
     Nongravitational parameters A1 = +0.00, A2 = +0.0018.

・ 光度変化

        m1 = 17.5 + 5 logΔ + 10.0 log r           [   , 20]  (              〜2013年 4月13日)
        m1 =  8.0 + 5 logΔ + 30   log r(t + 100)  [ 20,106]  (2013年 4月13日〜2013年 7月 8日)
        m1 = 17.5 + 5 logΔ + 10.0 log r           [106,   ]  (2013年 7月 8日〜              )

---------------------------------------------------------------------

軌道要素はM.P.E.C. 2015-M77に掲載されたものです。
光度グラフはComet for Windowsで作成したものです。

---------------------------------------------------------------------

Copyright(C) Seiichi Yoshida (comet@aerith.net). All rights reserved.